Torna al catalogo

STARLINK-37416

AttivoComunicazioniSSO
NORAD 100310·PAYLOAD·🇺🇸 United States

Lanciato Aug 12, 2026 da Vandenberg Space Force Base

Loading…

Prossimi Passaggi (prossime 24 ore)

TLE

AggiornatoSource: Space-Track

Epoca: Sep 14, 2026, 19:00 UTC

1 A0310U 26184K   26257.79207505  .00012255  00000-0  34063-3 0  9996
2 A0310  97.2833 122.9608 0001813  80.6441 279.5008 15.37002269  6420

Traccia STARLINK-37416 in tempo reale con AllMySat

Download on the App Store